Torna al catalogo

STARLINK-37307

AttivoComunicazioniSSO
NORAD 68681·PAYLOAD·🇺🇸 United States

Lanciato Apr 11, 2026 da Vandenberg Space Force Base

Loading…

Prossimi Passaggi (prossime 24 ore)

TLE

AggiornatoSource: CelesTrak SupGP

Epoca: Sep 14, 2026, 23:03 UTC

1 68681C 26077V   26257.96090278  .00070128  00000+0  21758-2 0  2573
2 68681  97.2848 127.9782 0002143  93.6604  27.1061 15.33418393    11

Traccia STARLINK-37307 in tempo reale con AllMySat

Download on the App Store